Wind_Speed
26 23 21 20 19 19 18 17 17 17 17 17 17 17 17 17 18 18 18 18 19 20 21 20 19 19 20 21 21 22 22 23 23 24 25 25 26 26 27 27 29 30 31
24 23 20 19 18 18 17 17 16 16 15 16 16 17 17 16 16 17 17 17 18 19 19 18 18 17 17 18 19 20 21 21 21 22 22 23 24 25 26 26 27 28 30
23 21 19 18 18 17 16 16 15 14 14 15 15 16 15 15 16 16 17 18 19 19 19 17 17 17 17 18 18 18 19 20 20 20 21 22 23 25 25 27 27 28 29
22 20 19 18 17 17 15 14 14 13 13 13 13 14 14 15 16 16 17 17 18 18 17 16 16 17 17 16 17 18 18 19 19 20 21 21 22 23 24 25 26 27 27
22 20 19 18 17 16 15 14 14 13 13 12 12 13 13 14 15 15 16 15 16 16 15 15 15 15 15 16 17 18 18 19 19 20 20 20 20 21 22 23 24 25 26
21 20 18 17 17 16 15 13 13 14 13 12 13 13 13 13 14 14 15 15 15 14 14 14 14 14 15 16 17 17 18 18 19 19 19 19 19 20 21 23 23 23 24
21 19 18 17 16 15 15 13 13 12 12 12 12 12 13 13 13 14 14 14 13 13 13 14 14 14 14 15 16 16 17 18 18 18 18 18 19 19 20 21 22 23 23
20 19 18 16 14 14 14 14 13 13 12 10 11 12 12 13 13 14 14 13 13 13 13 13 13 14 14 15 15 16 16 17 17 17 17 17 17 18 19 19 21 21 23
18 17 17 15 15 15 15 14 13 12 11 10 12 12 12 12 13 13 13 13 13 12 13 13 13 14 14 15 15 15 16 16 17 17 17 17 18 18 18 19 19 20 21
17 16 15 15 15 15 15 14 13 13 13 13 13 13 12 12 13 13 12 12 12 12 13 13 13 13 14 14 15 15 16 16 16 17 18 18 18 19 18 18 18 19 20
16 15 15 16 16 16 15 14 14 14 14 14 13 13 13 13 13 12 12 12 12 12 12 12 13 13 14 14 15 15 15 16 16 18 18 18 18 18 18 18 18 18 18
16 16 17 17 17 16 15 15 15 15 15 14 14 14 13 13 13 12 12 12 12 12 12 13 13 13 13 14 14 15 15 16 17 18 18 18 17 17 17 17 17 17 17
17 17 17 17 16 15 15 14 15 15 15 15 15 15 14 13 13 12 12 11 11 12 12 12 12 12 13 14 15 15 15 16 17 17 17 17 17 16 16 17 18 18 18
17 17 17 16 15 14 14 14 15 15 15 15 14 14 13 12 12 12 11 11 11 11 11 12 12 13 14 15 15 15 15 16 17 17 18 17 17 16 16 17 18 18 18
16 16 16 15 15 15 15 15 15 16 15 14 13 12 12 11 11 11 11 11 10 10 10 12 13 13 14 15 15 16 16 16 17 17 17 18 17 16 17 17 18 18 18
16 16 15 15 15 15 14 14 14 14 13 12 11 10 11 10 10 10 11 11 10 10 11 12 14 14 15 15 15 15 16 16 16 16 16 17 16 16 16 17 17 18 18
17 17 16 16 15 14 14 13 12 11 11 10 10 10 10 10 10 10 10 9 10 11 12 13 13 14 15 15 15 15 15 15 15 15 16 16 16 16 16 17 17 18 18
18 17 17 16 15 14 13 12 11 10 10 10 10 10 9 10 10 10 10 9 9 10 12 12 13 14 14 14 14 15 15 15 16 16 16 16 17 17 17 17 18 18 18
17 17 16 16 15 14 12 11 10 10 10 10 10 9 9 10 10 9 9 10 10 10 11 13 13 13 14 14 15 15 16 16 16 16 16 17 17 18 18 18 18 18 18
17 16 16 15 14 13 12 11 11 11 10 10 10 9 9 9 9 9 9 10 11 12 12 13 14 14 14 15 15 16 16 16 16 16 17 17 17 17 18 18 18 18 18
16 15 15 14 13 12 12 12 12 12 11 10 10 9 9 9 9 9 10 11 12 12 13 14 15 14 15 16 16 16 16 16 16 16 16 17 17 17 17 17 18 18 18
15 15 14 14 13 13 12 12 12 12 11 11 10 10 9 9 10 10 11 12 12 12 13 14 15 15 16 16 17 16 17 17 17 16 16 17 17 17 17 17 18 18 18
14 14 15 14 14 13 12 12 11 11 10 10 10 10 9 9 9 10 11 12 13 13 14 15 15 16 16 17 17 17 17 17 16 16 17 17 17 17 18 18 18 18 18
15 15 15 15 14 13 12 11 10 10 10 9 9 8 8 9 10 11 12 12 13 13 14 15 15 15 16 16 17 17 17 17 16 16 16 17 17 18 18 18 19 18 18
15 15 15 15 14 12 11 10 10 10 9 9 8 8 8 9 10 11 11 11 12 13 13 14 15 15 15 15 16 16 16 16 15 16 16 16 17 17 17 17 17 18 18
15 15 15 15 14 12 11 10 10 10 9 9 9 9 9 9 10 11 10 11 12 12 13 14 14 14 14 15 16 16 16 16 16 16 16 16 16 17 17 17 17 17 18
Wind_Direction
316 315 314 311 307 301 298 295 291 287 284 282 277 276 279 282 282 282 283 284 287 287 289 287 285 282 279 275 273 272 271 271 271 272 272 272 271 270 269 267 264 264 262
318 317 316 315 312 308 303 298 292 288 286 283 280 279 279 281 283 282 282 284 288 290 290 286 286 287 285 280 276 274 273 274 275 275 274 273 272 271 269 267 266 266 265
319 318 319 318 315 312 306 303 297 294 288 286 283 280 278 280 283 283 283 284 287 290 290 287 287 286 286 282 279 278 276 277 278 278 278 277 273 270 269 268 268 267 265
320 319 318 319 315 314 308 306 299 296 293 291 287 281 279 280 285 286 284 285 286 289 290 289 288 286 286 283 283 283 282 282 281 282 283 282 277 274 273 270 269 269 267
320 318 316 316 316 315 311 307 302 297 294 291 287 284 283 284 287 288 288 285 287 291 290 289 289 288 288 286 286 286 284 284 283 284 286 283 279 276 275 272 272 270 268
321 318 316 316 316 316 314 308 305 300 296 293 292 290 288 287 291 291 289 286 287 290 290 289 289 289 290 292 291 290 288 288 288 288 288 287 283 280 278 275 274 271 270
322 319 319 318 317 317 316 315 308 303 301 300 295 292 288 289 289 291 290 289 290 292 290 289 289 291 294 297 298 296 294 291 291 290 290 291 287 285 283 280 277 274 273
322 322 321 321 321 320 318 313 309 310 308 304 302 299 295 293 290 291 292 290 290 292 292 292 293 294 297 299 299 300 299 296 295 293 294 292 291 289 288 286 282 277 277
319 320 319 318 316 317 317 313 309 308 309 309 308 303 298 295 295 294 291 288 286 286 290 293 295 295 296 297 299 301 301 301 298 296 295 293 292 291 292 292 288 284 282
319 320 318 319 318 317 316 313 309 308 311 315 313 308 305 302 301 298 292 289 287 287 290 294 297 297 297 299 301 304 304 304 302 299 298 297 294 293 292 293 292 290 287
318 318 317 317 319 320 319 315 311 308 310 313 314 310 308 306 305 302 295 291 289 285 286 291 296 299 301 302 304 306 307 308 307 305 302 298 294 293 291 292 293 295 295
318 318 317 317 317 318 317 315 313 311 311 312 311 309 307 303 300 297 293 294 293 287 286 291 296 301 305 307 309 308 307 308 310 309 308 304 297 295 294 294 296 297 298
314 317 317 317 318 318 316 314 311 310 310 310 308 307 306 303 301 297 293 296 296 291 289 292 297 302 307 309 310 309 308 309 309 310 310 309 302 296 295 295 296 297 298
315 316 318 320 319 318 315 312 310 309 308 308 308 309 310 308 304 301 295 297 297 295 295 297 300 303 306 308 309 309 310 310 310 309 309 310 306 299 298 299 299 298 299
316 317 317 317 317 316 313 310 309 309 310 310 309 309 310 309 308 305 298 298 302 301 301 304 306 307 308 309 309 311 312 311 311 311 311 310 308 304 301 301 303 302 303
315 315 315 316 315 314 312 310 310 311 311 313 311 310 311 312 313 310 304 300 300 302 305 308 308 305 306 312 312 313 315 314 315 314 313 311 311 309 305 302 304 306 306
311 312 312 312 311 310 311 313 312 311 311 312 312 310 309 310 313 314 312 309 308 308 309 311 312 310 310 310 311 313 315 315 316 316 316 315 314 311 309 307 306 307 308
311 311 310 310 309 309 309 311 312 311 312 310 308 307 308 311 312 315 315 312 309 310 310 313 317 317 316 315 314 315 315 314 314 315 315 316 318 315 312 309 307 306 307
309 310 309 308 308 305 303 303 305 306 309 308 304 305 307 311 311 311 311 312 313 315 313 312 315 319 320 318 316 314 314 314 313 313 315 317 319 317 314 312 311 309 309
308 311 311 310 308 305 300 299 301 302 303 305 304 303 308 312 310 311 312 313 315 316 315 314 316 319 319 316 316 316 314 314 314 315 316 319 318 316 316 316 315 316 315
309 311 313 313 310 306 304 302 300 300 300 299 299 303 306 309 311 313 316 317 317 315 316 318 321 322 321 319 317 317 315 316 317 316 316 318 318 319 319 318 319 320 319
307 309 311 311 309 305 302 301 303 301 300 297 294 296 301 306 309 311 315 318 318 318 320 320 322 323 322 323 322 321 320 320 321 320 320 322 321 320 318 319 321 322 321
308 308 307 307 306 302 299 299 302 304 299 292 291 296 300 305 309 313 315 316 318 324 325 324 324 323 323 324 326 327 327 323 322 323 323 324 325 324 322 322 324 326 325
307 308 308 306 305 301 296 294 296 300 299 295 294 299 303 305 308 313 316 318 319 320 324 327 327 329 330 331 332 332 331 329 328 327 326 326 328 329 327 327 327 328 329
306 307 308 306 301 298 296 292 292 296 295 293 294 299 307 309 310 311 313 316 321 324 328 332 333 334 336 337 339 338 336 335 335 333 330 328 329 330 330 330 330 330 332
302 303 305 306 302 296 292 288 287 290 291 293 296 297 300 306 312 315 317 321 325 329 333 335 336 339 340 341 342 340 337 337 337 337 336 334 334 334 334 335 336 336 336
Height
5745 5740 5736 5733 5731 5729 5727 5725 5724 5723 5722 5722 5722 5722 5721 5721 5721 5720 5719 5718 5717 5715 5713 5712 5710 5709 5708 5707 5706 5706 5705 5705 5704 5704 5703 5702 5702 5701 5701 5700 5700 5700 5700
5740 5736 5732 5729 5726 5724 5722 5719 5718 5717 5717 5716 5716 5716 5716 5716 5715 5714 5713 5712 5711 5709 5707 5706 5704 5703 5702 5701 5700 5699 5698 5697 5697 5696 5695 5694 5693 5692 5692 5691 5691 5691 5691
5736 5732 5729 5726 5723 5720 5717 5715 5713 5713 5712 5712 5711 5711 5711 5711 5711 5709 5708 5707 5705 5704 5702 5700 5699 5698 5697 5695 5694 5693 5692 5691 5690 5689 5688 5686 5685 5684 5683 5683 5682 5682 5682
5733 5729 5725 5722 5719 5716 5713 5712 5710 5709 5709 5708 5707 5707 5706 5706 5705 5704 5703 5702 5700 5698 5697 5695 5694 5692 5691 5690 5689 5687 5686 5685 5683 5682 5680 5679 5677 5676 5675 5675 5674 5673 5673
5729 5725 5722 5719 5716 5713 5711 5709 5707 5706 5705 5704 5703 5703 5702 5701 5700 5699 5698 5696 5695 5693 5692 5690 5689 5687 5686 5685 5683 5682 5680 5679 5677 5675 5674 5672 5670 5669 5668 5667 5666 5665 5665
5725 5721 5718 5715 5712 5710 5707 5705 5704 5702 5701 5700 5699 5698 5697 5696 5695 5694 5693 5691 5690 5688 5687 5686 5684 5683 5681 5680 5678 5676 5675 5673 5671 5669 5667 5665 5664 5662 5661 5660 5659 5658 5658
5721 5717 5714 5711 5708 5706 5704 5702 5700 5698 5697 5696 5694 5693 5692 5691 5690 5689 5687 5686 5685 5683 5682 5681 5680 5678 5677 5675 5673 5671 5669 5667 5665 5664 5662 5659 5657 5656 5654 5653 5652 5651 5649
5717 5714 5710 5708 5705 5703 5701 5699 5697 5695 5694 5692 5691 5689 5688 5687 5686 5684 5683 5681 5680 5679 5678 5677 5675 5673 5672 5670 5668 5666 5664 5662 5660 5658 5656 5653 5651 5649 5648 5646 5645 5644 5642
5714 5711 5708 5705 5703 5700 5698 5696 5694 5692 5691 5689 5688 5686 5685 5683 5682 5680 5678 5677 5676 5675 5673 5672 5671 5669 5667 5665 5664 5662 5659 5657 5655 5652 5650 5648 5646 5644 5642 5640 5638 5637 5635
5711 5708 5706 5703 5700 5698 5695 5693 5691 5689 5688 5686 5684 5683 5681 5679 5678 5676 5674 5673 5671 5670 5669 5667 5666 5664 5662 5660 5658 5656 5654 5652 5650 5647 5645 5642 5640 5638 5636 5634 5632 5631 5629
5709 5706 5703 5700 5697 5694 5692 5690 5688 5686 5685 5683 5681 5679 5677 5675 5673 5671 5670 5668 5667 5665 5664 5663 5661 5659 5657 5656 5654 5652 5649 5647 5645 5642 5640 5637 5635 5632 5630 5628 5627 5625 5623
5706 5703 5700 5697 5694 5691 5688 5686 5684 5683 5681 5679 5677 5675 5673 5671 5669 5667 5666 5664 5662 5661 5660 5658 5657 5655 5653 5651 5649 5647 5644 5642 5639 5637 5634 5632 5629 5627 5625 5623 5621 5619 5617
5702 5699 5696 5692 5689 5687 5685 5683 5681 5679 5677 5675 5673 5671 5668 5666 5665 5663 5661 5659 5658 5657 5655 5654 5652 5650 5648 5646 5644 5642 5639 5637 5634 5632 5629 5627 5624 5622 5620 5618 5616 5614 5612
5699 5695 5692 5689 5686 5684 5682 5680 5678 5675 5673 5671 5668 5666 5664 5662 5660 5658 5657 5655 5654 5652 5651 5649 5647 5645 5643 5641 5639 5637 5635 5632 5630 5627 5624 5622 5619 5617 5615 5613 5611 5609 5606
5695 5692 5689 5686 5683 5680 5678 5676 5673 5671 5669 5666 5664 5662 5660 5658 5656 5655 5653 5652 5650 5649 5647 5645 5643 5641 5639 5637 5635 5633 5630 5628 5625 5623 5620 5617 5614 5612 5610 5608 5606 5603 5601
5691 5688 5685 5682 5680 5677 5674 5672 5669 5667 5664 5662 5660 5659 5657 5655 5653 5651 5650 5648 5647 5645 5643 5642 5640 5637 5635 5633 5631 5628 5626 5624 5621 5619 5616 5613 5610 5608 5605 5603 5600 5598 5595
5687 5685 5682 5679 5676 5673 5671 5668 5666 5664 5661 5659 5657 5656 5654 5652 5651 5649 5647 5645 5644 5642 5640 5638 5636 5633 5631 5629 5627 5625 5622 5620 5618 5615 5612 5609 5606 5603 5600 5598 5596 5593 5590
5683 5680 5677 5675 5672 5669 5666 5664 5662 5660 5659 5656 5655 5653 5651 5650 5648 5646 5644 5642 5641 5639 5637 5635 5632 5630 5627 5625 5623 5621 5618 5616 5613 5611 5608 5605 5602 5599 5596 5593 5591 5588 5585
5679 5676 5673 5670 5668 5665 5663 5661 5659 5657 5656 5654 5652 5650 5649 5647 5645 5643 5641 5640 5638 5636 5634 5632 5629 5627 5624 5622 5619 5617 5614 5612 5609 5606 5604 5601 5598 5594 5591 5589 5586 5583 5580
5674 5672 5669 5667 5664 5662 5659 5658 5656 5654 5652 5651 5649 5648 5646 5644 5643 5641 5639 5637 5635 5633 5631 5629 5626 5623 5621 5618 5616 5613 5611 5608 5605 5602 5599 5596 5593 5590 5587 5584 5581 5578 5575
5670 5668 5665 5663 5660 5658 5656 5654 5652 5651 5649 5647 5646 5645 5643 5642 5640 5639 5637 5635 5633 5630 5628 5625 5623 5620 5618 5615 5612 5609 5607 5604 5601 5598 5595 5592 5589 5585 5582 5579 5576 5573 5570
5666 5664 5661 5659 5657 5655 5652 5650 5649 5647 5645 5644 5643 5642 5640 5639 5638 5636 5634 5632 5630 5627 5625 5622 5620 5617 5614 5611 5609 5606 5602 5599 5596 5593 5590 5587 5584 5581 5578 5575 5572 5568 5565
5662 5660 5658 5655 5653 5651 5649 5647 5645 5644 5642 5641 5640 5638 5637 5636 5635 5633 5632 5630 5627 5624 5622 5619 5616 5614 5611 5608 5605 5602 5599 5595 5592 5589 5586 5583 5580 5577 5574 5571 5567 5564 5561
5657 5655 5653 5651 5649 5647 5645 5643 5642 5641 5639 5638 5637 5636 5635 5634 5632 5631 5629 5627 5624 5622 5619 5616 5613 5610 5607 5605 5602 5599 5595 5592 5589 5585 5582 5579 5576 5573 5570 5567 5564 5560 5557
5653 5651 5649 5647 5645 5643 5641 5640 5639 5638 5636 5635 5634 5633 5632 5631 5630 5628 5626 5624 5622 5619 5617 5614 5611 5608 5605 5602 5599 5596 5593 5589 5586 5583 5579 5576 5573 5570 5567 5564 5560 5557 5553
5648 5646 5644 5642 5640 5639 5638 5636 5636 5634 5633 5632 5631 5631 5630 5629 5627 5625 5624 5622 5619 5617 5614 5612 5609 5606 5603 5600 5597 5594 5591 5587 5584 5580 5577 5573 5570 5567 5564 5561 5558 5554 5551